Flag for American Samoa Weather past 2 weeks in Pago Pago, American Samoa

Now
86 °F

Scattered clouds.


Feels Like: 94 °F
Forecast: 77 / 85 °F
Wind: 9 mph from Southeast

Location: Pago Pago / Int. Airp.

Current Time: Oct 20, 2014 at 2:48:56 PM

Latest Report: Oct 20, 2014 at 1:54 PM


Visibility: 12 mi

Pressure: 29.86 "Hg

Humidity: 70%

Dew point: 75 °F

Location of Pago PagoLocation

Historic Weather in Pago Pago — Graph

°F

Pago Pago temperature yesterday

Maximum temperature yesterday: 86 °F (at 11:51 AM)
Minimum temperature yesterday: 79 °F (at 4:51 AM)
Average temperature yesterday: 82 °F

Past Weeks' High & Low Weather Summary

 TemperatureHumidityPressure
High92 °F (Oct 13, 12:50 PM)97% (Oct 15, 5:55 AM)29.95 "Hg (Oct 15, 5:55 AM)
Low75 °F (Oct 14, 11:50 AM)61% (Oct 16, 1:54 PM)29.77 "Hg (Oct 15, 2:50 PM)
Average83 °F79%29.87 "Hg
* Reported Oct 5 1:51 PM — Oct 20 12:52 PM, Pago Pago, Weather by CustomWeather, © 2014

Note: Actual official high and low records may vary slightly from our data, if they occured in-between our weather recording intervals... More about our weather records

Advertising

Pago Pago weather history for previous 24 hours

 ConditionsComfort  
Time TempWeatherWind HumidityBarometerVisibility
12:52 PM
Oct 20
86 °FBroken clouds.12 mph70%29.88 "Hg12 mi
11:52 AM85 °FBroken clouds.10 mph72%29.90 "Hg12 mi
10:51 AM85 °FBroken clouds.10 mph71%29.93 "Hg12 mi
9:50 AM83 °FBroken clouds.10 mph76%29.93 "Hg12 mi
8:50 AM83 °FBroken clouds.10 mph76%29.92 "Hg12 mi
7:51 AM81 °FBroken clouds.10 mph79%29.90 "Hg12 mi
6:50 AM82 °FBroken clouds.10 mph78%29.89 "Hg12 mi
5:54 AM80 °FBroken clouds.10 mph81%29.87 "Hg12 mi
4:50 AM80 °FPartly cloudy.9 mph82%29.86 "Hg10 mi
2:50 AM80 °FPartly cloudy.13 mph82%29.84 "Hg10 mi
1:50 AM80 °FPartly cloudy.13 mph84%29.85 "Hg10 mi
12:50 AM80 °FPassing clouds.13 mph82%29.86 "Hg10 mi
11:51 PM
Oct 19
80 °FPassing clouds.12 mph82%29.88 "Hg10 mi
10:50 PM80 °FMostly cloudy.12 mph81%29.90 "Hg10 mi
9:50 PM81 °FMostly cloudy.12 mph80%29.91 "Hg10 mi
8:57 PM81 °FMostly cloudy.12 mph79%29.90 "Hg10 mi
7:50 PM81 °FMostly cloudy.10 mph79%29.90 "Hg10 mi
3:50 PM84 °FBroken clouds.9 mph74%29.83 "Hg12 mi
2:57 PM85 °FBroken clouds.8 mph70%29.85 "Hg12 mi
Weather by CustomWeather, © 2014

See weather overviewHow to use our weather pages